User: anonymous   Login
Location: Mentone
(34.5413°N, 85.5351°W)
Time: 07:57:33
(UTC-05:00)
Language:

A-11 Canister half - Orbit

View from above orbital plane
View from above orbital plane
View from above satellite
View from above satellite

Ground track
Ground track

The orbit data is extracted from the following two-line orbital elements,

1 00053U 60009E   14301.51958137 -.00000086  00000-0  00000+0 0  5935
2 00053 047.2739 127.9302 0100187 117.2417 270.3571 12.17152292417791
Epoch (UTC): 28 October 2014 12:28:11
Eccentricity: 0.0100187
inclination: 47.2739°
perigee height: 1525 km
apogee height: 1685 km
right ascension of ascending node: 127.9302°
argument of perigee: 117.2417°
revolutions per day: 12.17152292
mean anomaly at epoch: 270.3571°
orbit number at epoch: 41779

The dashed part of the orbit path shows where the satellite is in the earth's shadow,  

DLR